Regional Weather Roundup
Issued by NWS

Home | Current Version | Previous Version | Graphics & Text | Print | Product List | Glossary On
Versions: 1 2 3 4 5 6 7 8 9 10 11 12 13 14 15 16 17 18 19 20 21 22 23 24 25 26 27 28 29 30 31 32 33 34 35 36 37 38 39 40 41 42 43 44 45 46 47 48 49 50
000
ASUS43 KLOT 181606
RWRIL

ILLINOIS REGIONAL WEATHER ROUNDUP
NATIONAL WEATHER SERVICE CHICAGO/ROMEOVILLE IL
1100 AM CDT FRI APR 18 2014

NOTE: "FAIR" INDICATES FEW OR NO CLOUDS BELOW 12,000 FEET WITH NO
SIGNIFICANT WEATHER AND/OR OBSTRUCTIONS TO VISIBILITY.

* THESE STATIONS ARE NOT UNDER NWS QUALITY CONTROL. THEY ALSO MAY NOT
  REPORT WEATHER SUCH AS PRECIPITATION OR FOG.

ILZ001-002-007-009-015-016-024-181700-
NORTHWEST ILLINOIS

CITY           SKY/WX    TMP DP  RH WIND       PRES   REMARKS
MOLINE         SUNNY     49  33  54 CALM      30.36S
STERLING*      SUNNY     52  37  58 N8        30.35S
SAVANNA*       SUNNY     49  34  55 NE6       30.36F
$$

ILZ003-004-008-010-011-017-018-181700-
NORTH CENTRAL ILLINOIS

CITY           SKY/WX    TMP DP  RH WIND       PRES   REMARKS
ROCKFORD       MOSUNNY   50  35  56 NE7       30.37F
FREEPORT*      SUNNY     47  36  66 N8        30.37S
ROCHELLE*      SUNNY     51  37  58 N8        30.35S
DE KALB*       SUNNY     48  36  63 N7        30.35S
PERU*          SUNNY     52  38  59 CALM      30.34S
$$

ILZ005-006-012>014-019>023-181700-
NORTHEAST ILLINOIS

CITY           SKY/WX    TMP DP  RH WIND       PRES   REMARKS
CHICAGO-OHARE  PTSUNNY   50  34  54 NE13      30.35R
CHICAGO-MIDWAY MOSUNNY   50  37  61 N10       30.35R
AURORA         SUNNY     52  38  58 NW6       30.34R
LANSING*       SUNNY     47  36  67 N12       30.34S
WAUKEGAN       MOSUNNY   44  32  62 N12       30.35R
DUPAGE AIRPORT SUNNY     52  37  56 N8        30.34R
KANKAKEE*      SUNNY     56  40  53 N7        30.33R
WHEELING       MOSUNNY   48  35  60 NE10      30.37R
MORRIS*        SUNNY     55  34  45 NW3       30.33R
ROMEOVILLE*    SUNNY     53  37  54 N7        30.34R
NORTHERLY ISL    N/A     42  34  73 MISG        N/A
$$

LMZ740>746-181700-
SOUTHERN LAKE MICHIGAN

STATION/POSITION SKY/WX   TEMP    WIND        PRES    VSBY  WAVE
                          AIR SEA DIR/SP/G                  HT/PER
                          (F)     (DEG/KT/KT) (MB)    (MI)  (FT/S)
WAUKEGAN HARBOR            38      20/ 21/ 24 1028.8S
HARRISON CRIB              38     350/ 16/ 18   N/A
BURNHAM HARBOR             43     340/ 16/ 17   N/A
CALUMET HARBOR             41     340/ 16/ 20 1028.9R
MICHIGAN CITY              40     310/  7/  8   N/A
$$

ILZ025>027-034>036-040-047-049-050-058-095>099-181700-
WEST-CENTRAL ILLINOIS

CITY           SKY/WX    TMP DP  RH WIND       PRES   REMARKS
QUINCY         SUNNY     55  36  48 N3        30.35R
GALESBURG*     SUNNY     53  37  55 NE7       30.35R
MACOMB*        SUNNY     53  35  50 N3        30.37R
JACKSONVILLE*  SUNNY     57  38  48 NE7       30.35S
PITTSFIELD*    SUNNY     57  38  49 CALM      30.35S
$$

ILZ028>032-037-038-041>044-048-051>054-059>061-181700-
CENTRAL ILLINOIS

CITY           SKY/WX    TMP DP  RH WIND       PRES   REMARKS
PONTIAC        SUNNY     55  39  54 NW5       30.34R
BLOOMINGTON    SUNNY     55  36  49 N10       30.35R
DECATUR        SUNNY     59  40  49 NW6       30.33R
PEORIA         SUNNY     55  37  50 VRB6      30.34S
LACON*         SUNNY     53  36  51 N5        30.34S
LINCOLN*       SUNNY     59  38  45 CALM      30.33S
SPRINGFIELD    SUNNY     61  38  42 N9        30.34S
TAYLORVILLE    SUNNY     57  39  51 N6        30.33S
$$

ILZ033-039-045-046-055>057-062-063-181700-
EAST-CENTRAL ILLINOIS

CITY           SKY/WX    TMP DP  RH WIND       PRES   REMARKS
CHAMPAIGN      SUNNY     61  39  44 N6        30.32R
RANTOUL*       SUNNY     60  38  44 CALM      30.33R
MATTOON        SUNNY     61  41  47 CALM      30.31S
PARIS*         SUNNY     63  43  48 N3        30.32S
$$

ILZ079-100>102-181700-
SOUTHWEST ILLINOIS

CITY           SKY/WX    TMP DP  RH WIND       PRES   REMARKS
ALTON          SUNNY     59  39  47 N6        30.33S
BELLEVILLE     SUNNY     61  44  53 N3        30.31S
CAHOKIA*       SUNNY     61  42  49 VRB3      30.32S
SPARTA*        SUNNY     59  45  58 CALM      30.32S
$$

ILZ064>066-069>071-074>076-080>082-084>086-088>090-092>094-181700-
SOUTH-CENTRAL ILLINOIS

CITY           SKY/WX    TMP DP  RH WIND       PRES   REMARKS
CARBONDALE     SUNNY     65  45  48 VRB5      30.30S
CAIRO*         SUNNY     69  42  38 NE7       30.29S
MARION         MOSUNNY   66  48  52 CALM      30.31S
MT. VERNON     SUNNY     64  39  39 SW3       30.31F
CENTRALIA*       N/A     61  43  51 CALM      30.31S
SALEM*         SUNNY     63  47  54 NE6       30.32R
METROPOLIS*    PTSUNNY   67  35  31 CALM      30.29R
$$

ILZ067-068-072-073-078-083-087-091-181700-
SOUTHEAST ILLINOIS

CITY           SKY/WX    TMP DP  RH WIND       PRES   REMARKS
FAIRFIELD*     SUNNY     66  46  48 W5        30.30S
HARRISBURG*    SUNNY     66  45  46 S3        30.31S
ROBINSON*      SUNNY     67  48  51 N5        30.31R
CARMI*         SUNNY     67  46  46 NW3       30.30S HAZE
$$

ABBREVIATIONS USED IN REMARKS
   TC - TEMPERATURE IN CELSIUS
  WCI - WIND CHILL INDEX
   HX - HEAT INDEX
  VSB - VISIBILITY
$$




USA.gov is the U.S. government's official web portal to all federal, state and local government web resources and services.